STARLINK-31058, 58677

Orbit data source: Space-Track

STARLINK-31058, 58677 is a payload satellite owned by SpaceX/Seattle (US) in LEO that was launched on Fri, 29 Dec 2023 UTC via an FALCON 9 launch vehicle from the Air Force Eastern Test Range (AFETR). Payload-class satellites include a variety of spacecraft equipped with specific instruments for various scientific and technological missions. These include communications satellites like Starlink; space stations such as the ISS; scientific satellites like the Hubble; Earth observation satellites from companies like Planet Labs, Umbra, and HawkEye 360; GPS; miniature CubeSats for education and research; and military/defense satellites.

Loading next visibility...
Identifier
58677, 2023-211L
Orbit
LEO
Country
Flag of USUS
Related business
Manufacturer
SpaceX/Seattle
Mission
Operational Commercial Communications
Bus & Motor
STARLINK V2M, Unknown motor
Mass
730 kg wet, ~700 kg dry
Launch date (UTC)
2023-12-29 (2 years ago)
Launch vehicle
FALCON 9
Launch site
Air Force Eastern Test Range (AFETR)
Object type
Payload
Rocket body
Debris
Shape & HBR
Box + 2 Pan, 17.7 m
Radar Cross Section
33.884 m², Large (>1 m²)

Expand to show TLE details & history
Last TLE update: 2 days ago

TLE from 2 days ago
0 STARLINK-31058
1 58677U 23211L   26171.19280425  .00007251  00000-0  27288-3 0  9995
2 58677  42.9991 226.1749 0001237 182.8958 177.1887 15.27566596138142
Epoch: 2026-06-20T04:37Z
TLE epoch observation values (Epoch: 2026-06-20T04:37:38.287Z)
Latitude
0.00002°
Longitude
-111.64556°
Altitude
483.712 km
Speed
7.625 km/s
True Right ascension
15h 04m 41s
True Declination
0° 00' 00"
Sunlit
Object was in full shadow at epoch
Visualization orbit readout
Latitude
Unknown
Longitude
Unknown
Altitude
Unknown
Speed
Unknown
Apparent Right ascension
Unknown
Apparent Declination
Unknown
Sunlit
N/A
Visualization observer readout
Local Sidereal Time
21:26:51
Azimuth
Unknown
Elevation
Unknown
Doppler factor
Unknown
Orbital elements
Apogee altitude
485.884 km
Perigee altitude
484.186 km
Semi-major axis
6,863.172 km
Eccentricity
0.00012
Inclination
42.9991°
RAAN
226.1749°
Arg. of periapsis
182.8958°
True anomaly
177.1894°
Mean anomaly
177.1887°
Eccentric anomaly
177.18905°
Mean motion
3.8173 °/min
Orbital period
94.31 mins
BSTAR
0.00027288
Loading maneuver chart data...
Computing Atmospheric mass density...
Loading historical data...
Loading historical data...
Loading historical data...
Loading historical data...
Loading historical data...
Loading historical data...
Loading historical data...

Documentation

Showing up to 5 results
|